SCOUT X-4 DEB, 2011

Orbit data source: Space-Track

SCOUT X-4 DEB, 2011 is space debris in LEO originally from a launch on Thu, 29 Apr 1965 UTC launched from the Wallops Island (WLPIS). Debris objects in space refer to the collection of defunct objects orbiting the Earth. Examples of debris include non-operational satellites, rocket bodies, and fragments generated from explosions, collisions, or faulty payload assembly.

Loading next visibility...
Identifier
2011, 1965-032D
Orbit
LEO
Country
Flag of USUS
Related business
Manufacturer
Unknown
Mission
Spacecraft
Bus & Motor
Unknown
Mass
Unknown
Launch date (UTC)
1965-04-29 (61 years ago)
Launch vehicle
Unknown
Launch site
Wallops Island (WLPIS)
Object type
Payload
Rocket body
Debris
Shape & HBR
Unknown shape, 0.1 m
Radar Cross Section
Small (<0.1 m²)

Expand to show TLE details & history
Last TLE update: 1 day ago

TLE from 1 day ago
0 SCOUT X-4 DEB
1 02011U 65032D   26037.15940980  .00000870  00000-0  14731-2 0  9997
2 02011  41.2001 323.9155 0229037 331.8506 163.7235 13.40826517959738
Epoch: 2026-02-06T03:49Z
TLE epoch observation values (Epoch: 2026-02-06T03:49:33.006Z)
Latitude
27.16792°
Longitude
-85.4576°
Altitude
1,271.063 km
Speed
7.144 km/s
True Right ascension
07h 12m 55s
True Declination
27° 02' 16"
Sunlit
Object was in full shadow at epoch
Visualization orbit readout
Latitude
Unknown
Longitude
Unknown
Altitude
Unknown
Speed
Unknown
Apparent Right ascension
Unknown
Apparent Declination
Unknown
Sunlit
N/A
Visualization observer readout
Local Sidereal Time
06:35:16
Azimuth
Unknown
Elevation
Unknown
Doppler factor
Unknown
Orbital elements
Apogee altitude
1,279.73 km
Perigee altitude
936.797 km
Semi-major axis
7,486.4 km
Eccentricity
0.0229
Inclination
41.2001°
RAAN
323.9155°
Arg. of periapsis
331.8506°
True anomaly
164.43938°
Mean anomaly
163.7235°
Eccentric anomaly
164.08338°
Mean motion
3.35068 °/min
Orbital period
107.44 mins
BSTAR
0.0014731
Loading maneuver chart data...
Computing Atmospheric mass density...
Loading historical data...
Loading historical data...
Loading historical data...
Loading historical data...
Loading historical data...
Loading historical data...
Loading historical data...
Other satellites on launch #32 in the year 1965 (1965-04-29 UTC)

Documentation

Showing up to 5 results
|